Simultaneous Nadir Overpasses (SNOs) Predictions

Prediction of SNOs between AQUA and GOES-15 Satellite Orbit:

Table of predicted SNOs for the next 14.0 days since TLE Epoch: 1/31/2015
Index Date Time (AQUA) AQUA Lat,Lon GOES-15 Lat,Lon Distance(km) Time Diff (sec)
1 02/01/2015 10:38:49 0.07,-135.68 -0.08,-135.02 75.59 80
2 02/03/2015 10:26:38 -0.60,-132.73 -0.08,-135.09 268.85 80
3 02/03/2015 22:48:02 -0.51,-137.92 0.08,-135.10 320.33 80
4 02/05/2015 22:35:50 0.13,-134.95 0.07,-135.16 24.00 80
5 02/07/2015 22:23:38 0.79,-132.00 0.07,-135.22 367.99 80
6 02/08/2015 10:44:53 0.32,-137.15 -0.07,-135.25 215.01 80
7 02/10/2015 10:32:40 -0.31,-134.18 -0.07,-135.31 128.28 80
8 02/10/2015 22:54:04 -0.77,-139.37 0.07,-135.30 461.87 80
9 02/12/2015 10:20:27 -0.97,-131.22 -0.07,-135.35 471.01 80
10 02/12/2015 22:41:50 -0.17,-136.40 0.06,-135.35 119.18 80




NCC Satellite Simultaneous Nadir Overpasses (SNOs) Prediction Service
